Location: Newark
(42.7133°N, 87.7910°W)
Time: 07:39:55
(UTC+00:00)

Vanguard 1 - Pass Details

Date: 23 September 2019
Orbit: 653 x 3830 km, 34.3° (Epoch: 14 October)

Event Time Altitude Azimuth Distance (km) Brightness Sun altitude
Rises 07:37:37 0° 239° (WSW) 7,564 - -40.2°
Reaches altitude 10° 07:42:33 10° 236° (SW) 6,743 - -39.7°
Exits shadow 07:59:59 53° 203° (SSW) 4,312 12.8 -37.5°
Maximum altitude 08:05:17 60° 164° (SSE) 3,978 12.8 -36.8°
Drops below altitude 10° 08:23:18 10° 91° (E) 5,521 14.4 -34.3°
Sets 08:26:50 0° 88° (E) 6,191 14.9 -33.8°
